Tracking 25195 objects as of 20-Jan-2022
HD Live streaming from Space Station
objects crossing your sky now

GAOFEN DUOMO (GFDM)

Track GAOFEN DUOMO (GFDM) now!
10-day predictions


NORAD ID: 45856
Int'l Code: 2020-042A
Perigee: 637.2 km
Apogee: 656.3 km
Inclination: 98.0 °
Period: 97.5 minutes
Semi major axis: 7017 km
RCS: Unknown
Launch date: July 3, 2020
Source: People's Republic of China (PRC)
Launch site: Taiyaun Space Center, China (TSC)
aabbcc
Your satellite tracking list
Your tracking list is empty




NASA's NSSDC Master Catalog

Two Line Element Set (TLE):
1 45856U 20042A   22020.09090054  .00000363  00000-0  59107-4 0  9997
2 45856  97.9615  98.2486 0013608 246.1709 113.8087 14.76758868 83527
Source of the keplerian elements: AFSPC